Вернуться в каталог

FENGYUN 1C DEB

АктивенSSO
NORAD 30566·DEBRIS·🇨🇳 China

Запущен May 10, 1999 с Taiyuan Satellite Launch Center

Loading…

Ближайшие Пролёты (ближайшие 24 часа)

TLE

СвежийSource: Space-Track

Эпоха: Sep 14, 2026, 15:48 UTC

1 30566U 99025ALG 26257.65891955  .00001211  00000-0  66212-3 0  9990
2 30566  99.1971 318.6026 0068716 129.2341  23.9746 14.12765723  2768

Отслеживайте FENGYUN 1C DEB в реальном времени с AllMySat

Download on the App Store